Tracking 25195 objects as of 19-Jan-2022
HD Live streaming from Space Station
objects crossing your sky now

METEOR 1-27

Track METEOR 1-27 now!
10-day predictions
METEOR 1-27 is classified as:


NORAD ID: 9903
Int'l Code: 1977-024A
Perigee: 845.2 km
Apogee: 899.8 km
Inclination: 81.2 °
Period: 102.3 minutes
Semi major axis: 7243 km
RCS: 4.395 m2 (large)
Launch date: April 5, 1977
Source: Commonwealth of Independent States (former USSR) (CIS)
Launch site: PLESETSK MISSILE AND SPACE COMPLEX (PKMTR)
aabbcc
Your satellite tracking list
Your tracking list is empty




NASA's NSSDC Master Catalog

Two Line Element Set (TLE):
1 09903U 77024A   22018.88902106  .00000080  00000-0  39655-4 0  9998
2 09903  81.2454 256.6812 0037715 231.8601 127.9168 14.08259925300867
Source of the keplerian elements: AFSPC